TimeCDT,TemperatureF,Dew PointF,Humidity,Sea Level PressureIn,VisibilityMPH,Wind Direction,Wind SpeedMPH,Gust SpeedMPH,PrecipitationIn,Events,Conditions,WindDirDegrees,DateUTC
12:15 AM,65.1,53.6,66,29.90,10.0,SSE,8.1,-,N/A,,Mostly Cloudy,160,2013-10-12 05:15:00
12:35 AM,64.9,53.6,67,29.90,10.0,SSE,6.9,-,N/A,,Mostly Cloudy,160,2013-10-12 05:35:00
12:55 AM,64.6,53.6,68,29.89,10.0,South,6.9,-,N/A,,Overcast,170,2013-10-12 05:55:00
1:15 AM,64.4,53.6,68,29.89,10.0,SSE,9.2,-,N/A,,Overcast,150,2013-10-12 06:15:00
1:35 AM,63.7,53.8,70,29.90,10.0,SSE,8.1,-,N/A,,Overcast,150,2013-10-12 06:35:00
1:55 AM,63.5,54.0,71,29.90,10.0,SSE,8.1,-,N/A,,Overcast,150,2013-10-12 06:55:00
2:15 AM,63.7,54.0,71,29.90,10.0,SE,9.2,-,N/A,,Overcast,140,2013-10-12 07:15:00
2:35 AM,64.0,54.1,70,29.90,10.0,SSE,9.2,-,N/A,,Overcast,150,2013-10-12 07:35:00
2:55 AM,64.4,54.5,70,29.90,10.0,SSE,11.5,-,N/A,,Overcast,160,2013-10-12 07:55:00
3:15 AM,64.2,54.5,71,29.90,10.0,SSE,9.2,-,N/A,,Overcast,160,2013-10-12 08:15:00
3:35 AM,64.4,54.9,71,29.90,10.0,SSE,9.2,-,N/A,,Overcast,160,2013-10-12 08:35:00
3:55 AM,64.0,54.9,72,29.89,10.0,SSE,8.1,-,N/A,,Mostly Cloudy,160,2013-10-12 08:55:00
4:16 AM,64.4,55.4,73,29.89,10.0,SSE,10.4,-,N/A,,Clear,150,2013-10-12 09:16:00
4:36 AM,62.6,55.4,77,29.89,10.0,SSE,9.2,-,N/A,,Clear,160,2013-10-12 09:36:00
4:57 AM,62.6,55.4,77,29.89,10.0,SSE,6.9,-,N/A,,Clear,150,2013-10-12 09:57:00
5:17 AM,62.6,55.4,77,29.89,10.0,SSE,5.8,-,N/A,,Clear,160,2013-10-12 10:17:00
5:38 AM,62.6,55.4,77,29.90,10.0,SSE,4.6,-,N/A,,Clear,160,2013-10-12 10:38:00
5:58 AM,60.8,55.4,82,29.91,10.0,SSE,3.5,-,N/A,,Clear,160,2013-10-12 10:58:00
6:15 AM,60.8,55.4,82,29.90,10.0,SSE,5.8,-,N/A,,Clear,150,2013-10-12 11:15:00
6:18 AM,60.8,55.4,82,29.90,10.0,SE,6.9,-,N/A,,Clear,140,2013-10-12 11:18:00
6:35 AM,61.2,55.6,82,29.91,10.0,South,4.6,-,N/A,,Clear,180,2013-10-12 11:35:00
6:55 AM,61.0,55.4,82,29.91,10.0,South,6.9,-,N/A,,Clear,170,2013-10-12 11:55:00
7:15 AM,61.7,56.3,82,29.91,10.0,SSE,5.8,-,N/A,,Mostly Cloudy,160,2013-10-12 12:15:00
7:35 AM,61.0,55.8,83,29.92,10.0,South,5.8,-,N/A,,Scattered Clouds,170,2013-10-12 12:35:00
7:55 AM,61.2,56.5,85,29.93,10.0,South,4.6,-,N/A,,Scattered Clouds,170,2013-10-12 12:55:00
8:15 AM,63.1,57.0,80,29.94,10.0,South,8.1,-,N/A,,Scattered Clouds,190,2013-10-12 13:15:00
8:35 AM,63.7,57.4,80,29.95,10.0,South,5.8,-,N/A,,Mostly Cloudy,190,2013-10-12 13:35:00
8:55 AM,64.4,57.9,79,29.94,10.0,South,5.8,-,N/A,,Mostly Cloudy,170,2013-10-12 13:55:00
9:15 AM,64.9,57.9,78,29.95,10.0,SSW,6.9,-,N/A,,Mostly Cloudy,210,2013-10-12 14:15:00
9:35 AM,64.6,57.2,77,29.97,10.0,West,12.7,16.1,N/A,,Overcast,270,2013-10-12 14:35:00
9:55 AM,61.7,49.6,65,29.98,10.0,West,13.8,17.3,N/A,,Overcast,280,2013-10-12 14:55:00
10:15 AM,61.0,48.2,63,29.99,10.0,West,9.2,19.6,N/A,,Overcast,270,2013-10-12 15:15:00
10:35 AM,61.2,48.6,63,29.99,10.0,West,5.8,-,N/A,,Overcast,260,2013-10-12 15:35:00
10:55 AM,61.2,48.7,64,29.99,10.0,WNW,5.8,-,N/A,,Overcast,300,2013-10-12 15:55:00
11:15 AM,61.7,48.4,62,29.99,10.0,West,4.6,-,N/A,,Mostly Cloudy,260,2013-10-12 16:15:00
11:35 AM,62.1,46.9,58,30.01,10.0,West,8.1,-,N/A,,Scattered Clouds,270,2013-10-12 16:35:00
11:55 AM,65.1,46.8,51,30.01,10.0,West,3.5,-,N/A,,Scattered Clouds,260,2013-10-12 16:55:00
12:15 PM,66.7,46.8,49,30.00,10.0,West,8.1,-,N/A,,Clear,260,2013-10-12 17:15:00
12:35 PM,67.6,46.6,47,30.01,10.0,West,6.9,-,N/A,,Clear,270,2013-10-12 17:35:00
12:55 PM,68.0,43.0,40,30.00,10.0,West,11.5,18.4,N/A,,Clear,270,2013-10-12 17:55:00
1:15 PM,68.9,43.5,40,30.00,10.0,West,11.5,16.1,N/A,,Clear,260,2013-10-12 18:15:00
1:35 PM,69.3,41.7,37,30.00,10.0,West,9.2,-,N/A,,Clear,270,2013-10-12 18:35:00
1:55 PM,69.1,39.7,34,30.00,10.0,West,11.5,-,N/A,,Clear,280,2013-10-12 18:55:00
2:15 PM,69.3,41.2,36,30.01,10.0,West,11.5,-,N/A,,Clear,270,2013-10-12 19:15:00
2:35 PM,69.1,40.8,36,30.01,10.0,West,11.5,18.4,N/A,,Clear,280,2013-10-12 19:35:00
2:55 PM,69.3,39.6,34,30.02,10.0,West,9.2,17.3,N/A,,Clear,270,2013-10-12 19:55:00
3:15 PM,69.6,38.8,33,30.03,10.0,WSW,11.5,18.4,N/A,,Clear,250,2013-10-12 20:15:00
3:35 PM,69.3,38.7,33,30.04,10.0,West,11.5,18.4,N/A,,Clear,260,2013-10-12 20:35:00
3:55 PM,69.1,37.4,31,30.04,10.0,West,12.7,23.0,N/A,,Clear,260,2013-10-12 20:55:00
4:15 PM,68.9,37.9,32,30.04,10.0,WSW,12.7,18.4,N/A,,Clear,250,2013-10-12 21:15:00
4:35 PM,68.9,37.4,32,30.05,10.0,West,8.1,16.1,N/A,,Clear,270,2013-10-12 21:35:00
4:55 PM,68.0,36.0,31,30.06,10.0,WNW,13.8,21.9,N/A,,Clear,290,2013-10-12 21:55:00
5:15 PM,67.1,37.0,33,30.06,10.0,West,11.5,17.3,N/A,,Clear,270,2013-10-12 22:15:00
5:35 PM,66.4,35.2,32,30.07,10.0,West,10.4,17.3,N/A,,Clear,280,2013-10-12 22:35:00
5:55 PM,65.5,36.0,34,30.08,10.0,West,6.9,-,N/A,,Clear,280,2013-10-12 22:55:00
6:15 PM,64.4,36.1,35,30.09,10.0,West,8.1,-,N/A,,Clear,270,2013-10-12 23:15:00
6:35 PM,63.3,37.2,38,30.09,10.0,West,5.8,-,N/A,,Clear,260,2013-10-12 23:35:00
6:55 PM,62.6,37.8,40,30.10,10.0,West,5.8,-,N/A,,Clear,280,2013-10-12 23:55:00
7:15 PM,61.2,38.7,43,30.11,10.0,West,3.5,-,N/A,,Clear,270,2013-10-13 00:15:00
7:35 PM,60.6,39.6,46,30.11,10.0,West,3.5,-,N/A,,Clear,270,2013-10-13 00:35:00
7:55 PM,60.1,39.4,46,30.12,10.0,West,4.6,-,N/A,,Clear,260,2013-10-13 00:55:00
8:15 PM,53.8,40.5,61,30.12,10.0,Calm,Calm,-,N/A,,Clear,0,2013-10-13 01:15:00
8:35 PM,51.1,40.5,67,30.13,10.0,Calm,Calm,-,N/A,,Clear,0,2013-10-13 01:35:00
8:55 PM,48.6,40.3,73,30.14,10.0,NE,3.5,-,N/A,,Clear,50,2013-10-13 01:55:00
9:15 PM,47.8,40.6,76,30.15,10.0,Calm,Calm,-,N/A,,Clear,0,2013-10-13 02:15:00
9:35 PM,48.2,41.0,76,30.16,10.0,Calm,Calm,-,N/A,,Clear,0,2013-10-13 02:35:00
9:55 PM,55.4,40.3,57,30.17,10.0,WNW,3.5,-,N/A,,Clear,290,2013-10-13 02:55:00
10:15 PM,49.3,40.3,71,30.17,10.0,NW,3.5,-,N/A,,Clear,310,2013-10-13 03:15:00
10:35 PM,50.5,39.7,66,30.18,10.0,Calm,Calm,-,N/A,,Clear,0,2013-10-13 03:35:00
10:55 PM,49.8,39.2,67,30.18,10.0,NW,3.5,-,N/A,,Clear,320,2013-10-13 03:55:00
11:15 PM,48.4,39.9,73,30.19,10.0,Calm,Calm,-,N/A,,Clear,0,2013-10-13 04:15:00
11:35 PM,43.5,39.2,85,30.19,10.0,Calm,Calm,-,N/A,,Clear,0,2013-10-13 04:35:00
11:55 PM,43.9,39.6,85,30.20,10.0,Calm,Calm,-,N/A,,Clear,0,2013-10-13 04:55:00